timestamp,surface_pressure_avg,surface_temp_avg,battery_voltage,lat,long
2021-12-21 00:09:00+00:00,337.958,4.3,12.65,47.84626,-54.09684
2021-12-21 00:19:01+00:00,343.7762,4.38,12.65,47.84626,-54.09684
2021-12-21 00:29:01+00:00,342.9147,4.4,12.65,47.84626,-54.09684
2021-12-21 00:39:01+00:00,338.5662,4.0,12.65,47.84626,-54.09684
2021-12-21 00:49:01+00:00,339.4079,3.9,12.65,47.84626,-54.09684
2021-12-21 00:59:01+00:00,345.8946,3.89,12.65,47.84626,-54.09684
2021-12-21 01:09:01+00:00,344.3646,3.8,12.65,47.84626,-54.09684
2021-12-21 01:19:01+00:00,339.0963,3.7,12.57,47.84626,-54.09684
2021-12-21 01:29:01+00:00,338.6013,3.7,12.57,47.84626,-54.09684
2021-12-21 01:39:01+00:00,337.4329,3.75,12.57,47.84626,-54.09684
2021-12-21 01:49:01+00:00,331.033,3.7,12.57,47.84626,-54.09684
2021-12-21 01:59:01+00:00,328.1296,3.75,12.57,47.84626,-54.09684
2021-12-21 02:09:01+00:00,327.9097,3.8,12.57,47.84626,-54.09684
2021-12-21 02:19:00+00:00,327.9213,3.87,12.57,47.84626,-54.09684
2021-12-21 02:29:00+00:00,320.2863,3.8,12.57,47.84626,-54.09684
2021-12-21 02:39:00+00:00,313.7497,3.7,12.57,47.84626,-54.09684
2021-12-21 02:49:00+00:00,314.2246,3.61,12.57,47.84626,-54.09684
2021-12-21 02:59:00+00:00,311.0714,3.67,12.57,47.84626,-54.09684
2021-12-21 03:09:00+00:00,305.9948,3.6,12.57,47.84626,-54.09684
2021-12-21 03:19:01+00:00,304.6181,3.6,12.57,47.84626,-54.09684
2021-12-21 03:29:01+00:00,301.5097,3.7,12.57,47.84626,-54.09684
2021-12-21 03:39:01+00:00,291.5731,3.6,12.57,47.84626,-54.09684
2021-12-21 03:49:01+00:00,281.8231,3.66,12.57,47.84626,-54.09684
2021-12-21 03:59:01+00:00,275.9897,4.38,12.57,47.84626,-54.09684
2021-12-21 04:09:01+00:00,267.528,3.9,12.57,47.84626,-54.09684
2021-12-21 04:19:00+00:00,259.1981,3.99,12.57,47.84626,-54.09684
2021-12-21 04:29:00+00:00,256.4914,4.0,12.57,47.84626,-54.09684
2021-12-21 04:39:00+00:00,250.3681,3.99,12.57,47.84626,-54.09684
2021-12-21 04:49:00+00:00,242.2014,3.9,12.57,47.84626,-54.09684
2021-12-21 04:59:00+00:00,237.5031,3.8,12.57,47.84626,-54.09684
2021-12-21 05:09:00+00:00,235.0564,3.79,12.57,47.84626,-54.09684
2021-12-21 05:19:00+00:00,228.7764,3.77,12.57,47.84626,-54.09684
2021-12-21 05:29:00+00:00,221.4681,3.8,12.57,47.84626,-54.09684
2021-12-21 05:39:00+00:00,220.2498,3.8,12.57,47.84626,-54.09684
2021-12-21 05:49:00+00:00,220.0215,3.8,12.57,47.84626,-54.09684
2021-12-21 05:59:00+00:00,216.0064,3.81,12.57,47.84626,-54.09684
2021-12-21 06:09:00+00:00,213.0615,3.93,12.57,47.84626,-54.09684
2021-12-21 06:19:00+00:00,212.5115,4.09,12.57,47.84626,-54.09684
2021-12-21 06:29:00+00:00,211.4182,4.2,12.57,47.84626,-54.09684
2021-12-21 06:39:00+00:00,212.3648,4.3,12.57,47.84626,-54.09684
2021-12-21 06:49:00+00:00,216.0615,4.3,12.57,47.84626,-54.09684
2021-12-21 06:59:00+00:00,216.5931,4.3,12.57,47.84626,-54.09684
2021-12-21 07:09:00+00:00,215.7681,4.3,12.57,47.84626,-54.09684
2021-12-21 07:19:00+00:00,221.1448,4.3,12.57,47.84626,-54.09684
2021-12-21 07:29:00+00:00,226.7498,4.3,12.57,47.84626,-54.09684
2021-12-21 07:39:00+00:00,228.7281,4.31,12.57,47.84626,-54.09684
2021-12-21 07:49:00+00:00,233.4714,4.48,12.57,47.84626,-54.09684
2021-12-21 07:59:00+00:00,239.8631,4.6,12.57,47.84626,-54.09684
2021-12-21 08:09:00+00:00,241.468,4.7,12.57,47.84626,-54.09684
2021-12-21 08:19:00+00:00,244.3798,4.77,12.49,47.84626,-54.09684
2021-12-21 08:29:00+00:00,252.6464,4.8,12.49,47.84626,-54.09684
2021-12-21 08:39:00+00:00,263.4681,4.8,12.49,47.84626,-54.09684
2021-12-21 08:49:00+00:00,266.1997,4.78,12.49,47.84626,-54.09684
2021-12-21 08:59:00+00:00,267.7814,4.72,12.49,47.84626,-54.09684
2021-12-21 09:09:00+00:00,273.9564,4.77,12.49,47.84626,-54.09684
2021-12-21 09:19:01+00:00,279.7997,4.8,12.49,47.84626,-54.09684
2021-12-21 09:29:01+00:00,280.8381,4.7,12.49,47.84626,-54.09684
2021-12-21 09:39:01+00:00,286.763,4.69,12.49,47.84626,-54.09684
2021-12-21 09:49:01+00:00,295.368,4.7,12.49,47.84626,-54.09684
2021-12-21 09:59:01+00:00,296.1213,4.5,12.49,47.84626,-54.09684
2021-12-21 10:09:01+00:00,296.2396,4.39,12.49,47.84626,-54.09684
2021-12-21 10:19:00+00:00,301.33799999999997,4.3,12.49,47.84626,-54.09684
2021-12-21 10:29:00+00:00,304.5596,4.2,12.49,47.84626,-54.09684
2021-12-21 10:39:00+00:00,306.3746,4.2,12.49,47.84626,-54.09684
2021-12-21 10:49:00+00:00,315.878,4.2,12.49,47.84626,-54.09684
2021-12-21 10:59:00+00:00,327.6663,4.28,12.49,47.84626,-54.09684
2021-12-21 11:09:00+00:00,332.0447,4.37,12.49,47.84626,-54.09684
2021-12-21 11:19:00+00:00,336.8029,4.2,12.49,47.84626,-54.09684
2021-12-21 11:29:00+00:00,347.5746,4.1,12.49,47.84626,-54.09684
2021-12-21 11:39:00+00:00,356.2429,4.1,12.49,47.84626,-54.09684
2021-12-21 11:49:00+00:00,360.3262,4.44,12.49,47.84626,-54.09684
2021-12-21 11:59:00+00:00,366.3146,5.0,12.49,47.84626,-54.09684
2021-12-21 12:09:00+00:00,370.3763,4.92,12.49,47.84626,-54.09684
2021-12-21 12:19:00+00:00,371.5564,4.3,12.57,47.84626,-54.09684
2021-12-21 12:29:00+00:00,371.8411,4.31,12.57,47.84626,-54.09684
2021-12-21 12:39:00+00:00,374.3063,4.81,12.57,47.84626,-54.09684
2021-12-21 12:49:00+00:00,379.7762,5.11,12.57,47.84626,-54.09684
2021-12-21 12:59:00+00:00,384.5761,5.1,12.57,47.84626,-54.09684
2021-12-21 13:09:00+00:00,384.4014,5.0,12.57,47.84626,-54.09684
2021-12-21 13:19:01+00:00,382.8713,5.2,12.73,47.84626,-54.09684
2021-12-21 13:29:01+00:00,381.0029,5.3,12.73,47.84626,-54.09684
2021-12-21 13:39:01+00:00,377.3945,5.2,12.73,47.84626,-54.09684
2021-12-21 13:49:01+00:00,378.8179,5.2,12.73,47.84626,-54.09684
2021-12-21 13:59:01+00:00,377.4763,5.29,12.73,47.84626,-54.09684
2021-12-21 14:09:01+00:00,371.0562,5.39,12.73,47.84626,-54.09684
2021-12-21 14:19:00+00:00,368.49300000000005,5.4,13.84,47.84626,-54.09684
2021-12-21 14:29:00+00:00,368.7762,5.4,13.84,47.84626,-54.09684
2021-12-21 14:39:00+00:00,362.5396,5.1,13.84,47.84626,-54.09684
2021-12-21 14:49:00+00:00,356.3079,4.96,13.84,47.84626,-54.09684
2021-12-21 14:59:00+00:00,359.1146,5.09,13.84,47.84626,-54.09684
2021-12-21 15:09:00+00:00,353.4979,5.0,13.84,47.84626,-54.09684
2021-12-21 15:19:00+00:00,341.5063,4.97,13.29,47.84626,-54.09684
2021-12-21 15:29:00+00:00,337.4530000000001,5.1,13.29,47.84626,-54.09684
2021-12-21 15:39:00+00:00,333.9346,5.0,13.29,47.84626,-54.09684
2021-12-21 15:49:00+00:00,328.1896,5.0,13.29,47.84626,-54.09684
2021-12-21 15:59:00+00:00,320.0179,5.0,13.29,47.84626,-54.09684
2021-12-21 16:09:00+00:00,313.2363,5.0,13.29,47.84626,-54.09684
2021-12-21 16:19:00+00:00,305.4496,4.9,13.37,47.84626,-54.09684
2021-12-21 16:29:00+00:00,295.1313,4.9,13.37,47.84626,-54.09684
2021-12-21 16:39:00+00:00,285.1031,4.9,13.37,47.84626,-54.09684
2021-12-21 16:49:00+00:00,280.9581,4.86,13.37,47.84626,-54.09684
2021-12-21 16:59:00+00:00,278.1397,4.95,13.37,47.84626,-54.09684
2021-12-21 17:09:00+00:00,268.3581,5.0,13.37,47.84626,-54.09684
2021-12-21 17:19:00+00:00,256.1831,5.0,13.13,47.84626,-54.09684
2021-12-21 17:29:00+00:00,247.1563,5.09,13.13,47.84626,-54.09684
2021-12-21 17:39:00+00:00,240.3464,5.1,13.13,47.84626,-54.09684
2021-12-21 17:49:00+00:00,231.5681,5.1,13.13,47.84626,-54.09684
2021-12-21 17:59:00+00:00,224.4048,5.1,13.13,47.84626,-54.09684
2021-12-21 18:09:00+00:00,218.4131,5.1,13.13,47.84626,-54.09684
2021-12-21 18:19:00+00:00,213.7081,5.13,12.97,47.84626,-54.09684
2021-12-21 18:29:00+00:00,210.6348,5.19,12.97,47.84626,-54.09684
2021-12-21 18:39:00+00:00,206.8765,5.2,12.97,47.84626,-54.09684
2021-12-21 18:49:00+00:00,205.4931,5.27,12.97,47.84626,-54.09684
2021-12-21 18:59:00+00:00,209.1431,5.29,12.97,47.84626,-54.09684
2021-12-21 19:09:00+00:00,211.4948,5.3,12.97,47.84626,-54.09684
2021-12-21 19:19:00+00:00,213.6348,5.3,13.29,47.84626,-54.09684
2021-12-21 19:29:00+00:00,217.8164,5.35,13.29,47.84626,-54.09684
2021-12-21 19:39:00+00:00,222.8897,5.39,13.29,47.84626,-54.09684
2021-12-21 19:49:00+00:00,225.7064,5.4,13.29,47.84626,-54.09684
2021-12-21 19:59:00+00:00,229.5381,5.4,13.29,47.84626,-54.09684
2021-12-21 20:09:00+00:00,234.1497,5.4,13.29,47.84626,-54.09684
2021-12-21 20:19:00+00:00,239.4881,5.38,12.97,47.84626,-54.09684
2021-12-21 20:29:00+00:00,243.0181,5.31,12.97,47.84626,-54.09684
2021-12-21 20:39:00+00:00,244.4231,5.3,12.97,47.84626,-54.09684
2021-12-21 20:49:00+00:00,245.6614,5.3,12.97,47.84626,-54.09684
2021-12-21 20:59:00+00:00,253.8631,5.2,12.97,47.84626,-54.09684
2021-12-21 21:09:00+00:00,260.9814,5.2,12.97,47.84626,-54.09684
2021-12-21 21:19:01+00:00,263.1431,5.18,12.73,47.84626,-54.09684
2021-12-21 21:29:01+00:00,265.548,5.1,12.73,47.84626,-54.09684
2021-12-21 21:39:01+00:00,273.4564,5.1,12.73,47.84626,-54.09684
2021-12-21 21:49:01+00:00,275.9147,5.05,12.73,47.84626,-54.09684
2021-12-21 21:59:01+00:00,276.688,5.0,12.73,47.84626,-54.09684
2021-12-21 22:09:01+00:00,283.6114,5.0,12.73,47.84626,-54.09684
2021-12-21 22:19:00+00:00,294.6897,5.0,12.65,47.84626,-54.09684
2021-12-21 22:29:00+00:00,300.6663,5.0,12.65,47.84626,-54.09684
2021-12-21 22:39:00+00:00,301.8764,5.0,12.65,47.84626,-54.09684
2021-12-21 22:49:00+00:00,308.8047,5.0,12.65,47.84626,-54.09684
2021-12-21 22:59:00+00:00,317.5814,5.0,12.65,47.84626,-54.09684
2021-12-21 23:09:00+00:00,319.978,5.0,12.65,47.84626,-54.09684
2021-12-21 23:19:01+00:00,318.5413,5.0,12.65,47.84626,-54.09684
2021-12-21 23:29:01+00:00,326.2897,5.0,12.65,47.84626,-54.09684
2021-12-21 23:39:01+00:00,332.9696,5.0,12.65,47.84626,-54.09684
2021-12-21 23:49:01+00:00,332.8812,4.97,12.65,47.84626,-54.09684
2021-12-21 23:59:01+00:00,330.9246,4.95,12.65,47.84626,-54.09684
